[[{"header":{"parameterUnit":"m.s-1","parameterCategory":1,"la1":30.2991,"la2":30.254,"lo1":-89.0895,"lo2":-89.0444,"dy":0.0017,"dx":0.0017,"nx":28,"ny":28,"refTime":"2023-07-18T21:00:00:Z","depth":0,"parameterNumber":2,"parameterNumberName":"U-component_of_WINDS"},"data":[0,0,0,0,0,0,0,0,0,0,0,0,0,0,0,0,0,0,0,0,0,0,0,0,0,0,0,0,0,0,0,0,0,0,0,0,0,0,0,0,0,0,0,0,0,0,0,0,0,0,0,0,0,0,0,0,0,0,2.535,2.5351,0,2.5396,2.5397,2.5397,2.5362,2.5361,2.5359,2.5358,2.5404,2.5407,2.541,0,0,0,0,0,0,0,0,0,0,0,0,0,2.5229,2.5231,2.535,2.5351,2.5351,2.5396,2.5397,2.5398,2.5363,2.5361,2.5359,2.5357,2.5403,2.5407,2.541,0,0,0,0,0,0,0,0,0,0,0,0,0,2.5279,2.5232,2.535,2.5339,2.5339,2.5396,2.5397,2.5398,2.5363,2.5361,2.5359,2.5356,2.5402,2.5406,2.541,2.548,0,0,2.5422,2.5424,0,0,0,0,0,0,0,0,2.5276,2.5284,2.534,2.534,2.534,2.5371,2.5371,2.5425,2.5364,2.5354,2.5358,2.5355,2.5395,2.54,2.5413,2.5482,2.5484,2.5423,2.5425,2.5427,2.5428,0,0,0,0,0,0,0,2.5273,2.5281,2.5368,2.5341,2.5341,2.5331,2.5336,2.5381,2.5387,2.5355,2.5352,2.5358,2.5395,2.5409,2.5414,2.5485,2.5423,2.5426,2.5429,2.543,2.561,2.5612,0,0,0,0,0,0,2.5271,2.5279,2.5367,2.537,2.5302,2.5335,2.5341,2.5364,2.5386,2.5387,2.536,2.5356,2.5404,2.5409,2.5416,2.5496,2.5427,2.5431,2.5433,2.5607,2.561,2.5613,0,0,0,0,0,0,2.5268,2.5279,2.5365,2.5324,2.5334,2.534,2.5366,2.5366,2.538,2.539,2.5391,2.5374,2.5402,2.541,2.5463,2.5497,2.5432,2.5436,2.5604,2.5608,2.5611,2.5659,0,0,0,0,0,0,2.5265,2.5278,2.5306,2.5325,2.5336,2.5413,2.5368,2.5368,2.5388,2.5383,2.5404,2.5405,2.5401,2.5458,2.5467,2.5501,2.5439,2.5601,2.5606,2.561,2.5654,2.5663,2.5671,0,0,0,0,0,2.5261,2.5318,2.5307,2.5318,2.5371,2.5416,2.5422,2.5416,2.5391,2.5417,2.5423,2.5404,2.5492,2.5464,2.5474,2.551,2.5599,2.5605,2.561,2.565,2.5662,2.5671,0,0,0,0,0,0,2.5304,2.532,2.5309,2.5374,2.5394,2.541,2.5443,2.5429,2.5456,2.5451,2.5443,2.5448,2.5503,2.5512,2.548,2.5576,2.5541,2.5549,2.5568,2.5579,2.5588,2.5583,2.5442,0,0,0,0,0,2.5321,2.5356,2.5369,2.5425,2.5435,2.5438,2.5457,2.5451,2.547,2.5478,2.5488,2.5508,2.5539,2.556,2.559,2.5656,2.5658,2.5685,2.5694,2.5701,2.5707,2.5739,2.575,2.563,2.563,2.563,0,0,2.5356,2.537,2.5393,2.5434,2.5448,2.5483,2.5445,2.5485,2.551,2.5485,2.5535,2.5543,2.5563,2.5622,2.5649,2.5632,2.5741,2.5708,2.5713,2.5716,2.5745,2.5757,2.5767,2.5634,2.5633,2.5633,0,0,2.5438,2.5454,2.55,2.5515,2.5537,2.5537,2.5549,2.5566,2.557,2.5621,2.5601,2.5631,2.5686,2.5701,2.5715,2.58,2.5783,2.581,2.5855,2.5886,2.5895,2.5903,2.593,2.594,2.5817,2.5817,2.5817,0,2.548,2.5533,2.5526,2.5566,2.5583,2.5561,2.5607,2.5622,2.5652,2.5664,2.5644,2.5711,2.5724,2.5784,2.5804,2.5818,2.5829,2.5807,2.5894,2.5903,2.591,2.5936,2.5946,2.582,2.582,2.5819,2.5819,0,2.558,2.5617,2.5652,2.5681,2.5702,2.5746,2.5744,2.5766,2.5758,2.576,2.581,2.5824,2.5855,2.5869,2.5862,2.5928,2.5916,2.5896,2.586,2.5925,2.5948,2.5958,2.5824,2.5823,2.5822,2.5821,0,0,2.5691,2.5714,2.5727,2.5738,2.5759,2.5787,2.5828,2.5857,2.5875,2.5897,2.5929,2.5975,2.5956,2.5972,2.5966,2.5994,2.6056,2.597,2.597,2.5983,2.6125,2.6138,2.6149,2.6045,2.6047,2.6049,2.6122,0,2.5771,2.5842,2.5836,2.5903,2.5935,2.5913,2.5948,2.5965,2.5968,2.5994,2.5998,2.6029,2.6003,2.6012,2.6039,2.6043,2.6084,2.6038,2.6073,2.6074,2.6065,2.6162,2.6177,2.6245,2.6132,2.6133,2.6134,0,2.5875,2.5898,2.5968,2.5981,2.5994,2.6026,2.6051,2.6078,2.6094,2.6094,2.6112,2.61,2.6139,2.6104,2.6156,2.6125,2.6139,2.6143,2.6145,2.6146,2.6106,2.6163,2.6268,2.6277,2.615,2.6148,2.6147,0,2.5944,2.5994,2.604,2.6051,2.6069,2.6091,2.6099,2.6114,2.6131,2.6153,2.6163,2.619,2.6203,2.6223,2.6218,2.6194,2.6271,2.6236,2.627,2.627,2.6285,2.6284,2.639,2.6299,2.6299,2.6299,2.6299,0,2.6033,2.6075,2.6071,2.61,2.6146,2.6138,2.6183,2.6189,2.6202,2.623,2.6214,2.624,2.6234,2.6259,2.6256,2.6298,2.6305,2.6305,2.6303,2.6304,2.6304,2.6312,2.6306,2.6302,2.6301,2.63,2.63,0,2.6117,2.6117,2.6166,2.6178,2.6181,2.6215,2.6224,2.625,2.6251,2.6287,2.6295,2.6296,2.6326,2.6323,2.6357,2.6354,2.6405,2.6399,2.6399,2.6396,2.6429,2.6425,2.6542,2.6556,2.6459,2.646,2.646,0,2.6173,2.6205,2.6219,2.6236,2.6246,2.6275,2.6291,2.6284,2.6302,2.6322,2.6345,2.6373,2.6394,2.6442,2.6446,2.647,2.6463,2.6502,2.6466,2.6466,2.6459,2.6456,2.6458,2.6508,2.651,2.651,2.6511,0,2.627,2.6267,2.6292,2.6316,2.6336,2.6355,2.6372,2.6387,2.6381,2.6402,2.6431,2.6448,2.6481,2.6507,2.653,2.6538,2.6523,2.6523,2.6531,2.6532,2.6529,2.6528,2.6415,2.6519,2.6519,2.6518,2.6518,2.6517,2.6339,2.6365,2.6378,2.6405,2.6417,2.6433,2.6457,2.646,2.6484,2.651,2.6505,2.6537,2.655,2.6579,2.6589,2.6613,2.6599,2.6612,2.6615,2.6617,2.6619,2.6528,2.6618,2.6618,2.6617,2.6617,2.6617,0,2.6432,2.6439,2.6465,2.6488,2.6508,2.6493,2.651,2.6528,2.6557,2.6571,2.6591,2.6623,2.6649,2.6654,2.6677,2.6696,2.6689,2.6702,2.6699,2.67,2.6633,2.6621,2.6706,2.6706,2.6706,2.6706,2.6706,2.6706,2.6483,2.6524,2.6523,2.6569,2.6576,2.6607,2.6618,2.6631,2.6642,2.6678,2.6698,2.6702,2.6711,2.6735,2.6757,2.6757,2.6765,2.678,2.6778,2.6714,2.6705,2.6697,2.6686,2.6783,2.6783,2.6843,2.6843,2.6844]},{"header":{"parameterUnit":"m.s-1","parameterCategory":1,"la1":30.2991,"la2":30.254,"lo1":-89.0895,"lo2":-89.0444,"dy":0.0017,"dx":0.0017,"nx":28,"ny":28,"refTime":"2023-07-18T21:00:00:Z","depth":0,"parameterNumber":3,"parameterNumberName":"V-component_of_WINDS"},"data":[0,0,0,0,0,0,0,0,0,0,0,0,0,0,0,0,0,0,0,0,0,0,0,0,0,0,0,0,0,0,0,0,0,0,0,0,0,0,0,0,0,0,0,0,0,0,0,0,0,0,0,0,0,0,0,0,0,0,3.2135,3.2137,0,3.2258,3.2259,3.226,3.2253,3.2251,3.2249,3.2247,3.2371,3.2376,3.2381,0,0,0,0,0,0,0,0,0,0,0,0,0,3.1891,3.1895,3.2135,3.2137,3.2138,3.2257,3.2259,3.2261,3.2253,3.2251,3.2249,3.2247,3.2369,3.2375,3.2381,0,0,0,0,0,0,0,0,0,0,0,0,0,3.2003,3.1897,3.2135,3.2149,3.2151,3.2257,3.2259,3.2261,3.2253,3.2251,3.2248,3.2245,3.2367,3.2375,3.2382,3.2481,0,0,3.2405,3.2408,0,0,0,0,0,0,0,0,3.1997,3.2012,3.2145,3.2148,3.2151,3.2237,3.2218,3.2335,3.2254,3.2215,3.2247,3.2244,3.2328,3.2339,3.2368,3.2487,3.2493,3.2405,3.241,3.2413,3.2415,0,0,0,0,0,0,0,3.1989,3.2007,3.2184,3.2147,3.2151,3.2147,3.2161,3.224,3.2285,3.2218,3.2217,3.2232,3.2329,3.2361,3.2371,3.2494,3.2405,3.2412,3.2416,3.2419,3.2698,3.2701,0,0,0,0,0,0,3.1979,3.2001,3.218,3.2187,3.2066,3.2154,3.2169,3.2212,3.2284,3.2293,3.2234,3.2231,3.2349,3.2362,3.2375,3.2494,3.2413,3.242,3.2424,3.2695,3.2699,3.2702,0,0,0,0,0,0,3.1974,3.1995,3.2175,3.2094,3.2117,3.2161,3.221,3.2216,3.2247,3.2297,3.2304,3.2258,3.2348,3.2364,3.2454,3.2499,3.2423,3.243,3.2692,3.2697,3.2701,3.2736,0,0,0,0,0,0,3.1967,3.1993,3.2033,3.2095,3.2121,3.2254,3.2213,3.222,3.226,3.2257,3.2321,3.2329,3.2347,3.2443,3.2462,3.2508,3.2436,3.2688,3.2694,3.2699,3.2731,3.2741,3.2749,0,0,0,0,0,3.1958,3.2038,3.2035,3.2056,3.2171,3.2256,3.2271,3.2291,3.2264,3.2303,3.2334,3.2327,3.2491,3.2453,3.2473,3.2522,3.2686,3.2692,3.2699,3.2726,3.2739,3.2749,0,0,0,0,0,0,3.198,3.2046,3.2044,3.2146,3.2196,3.2255,3.2305,3.2303,3.2361,3.2356,3.2377,3.2391,3.2481,3.251,3.2467,3.262,3.2584,3.2595,3.2598,3.261,3.2619,3.261,3.2442,0,0,0,0,0,3.1996,3.2061,3.2115,3.22,3.2225,3.2261,3.2299,3.2309,3.2361,3.2382,3.242,3.2469,3.2532,3.2573,3.2633,3.2734,3.2747,3.2778,3.2787,3.2794,3.2804,3.2857,3.2871,3.2724,3.2724,3.2724,0,0,3.2032,3.2076,3.2115,3.2206,3.2245,3.231,3.2279,3.2349,3.2397,3.2392,3.2479,3.2509,3.2565,3.2661,3.2705,3.2688,3.2847,3.2803,3.2808,3.2814,3.2865,3.2879,3.2891,3.2729,3.2728,3.2727,0,0,3.2129,3.217,3.2244,3.2284,3.2344,3.2366,3.2384,3.2443,3.2463,3.255,3.2547,3.2603,3.2711,3.2751,3.2786,3.2894,3.2889,3.2913,3.2962,3.3013,3.3025,3.3035,3.3073,3.3086,3.2922,3.2922,3.2922,0,3.2165,3.2264,3.2282,3.2353,3.2391,3.239,3.2464,3.2501,3.2578,3.2604,3.2584,3.2717,3.2756,3.2859,3.2885,3.2914,3.2933,3.2906,3.3022,3.3032,3.3042,3.3078,3.3092,3.2925,3.2925,3.2924,3.2924,0,3.2304,3.2372,3.2425,3.2498,3.2543,3.2615,3.2643,3.2685,3.2691,3.2715,3.2803,3.2848,3.2917,3.2942,3.2948,3.3046,3.3033,3.3017,3.2982,3.3058,3.3092,3.3106,3.2928,3.2928,3.2927,3.2926,0,0,3.2421,3.2501,3.252,3.2553,3.2617,3.267,3.274,3.2807,3.2842,3.2894,3.2953,3.3043,3.3027,3.3066,3.3077,3.3122,3.3203,3.3101,3.3102,3.3117,3.3311,3.3322,3.3338,3.32,3.3202,3.3204,3.3306,0,3.2524,3.265,3.2667,3.2778,3.284,3.2838,3.2899,3.2944,3.2968,3.3022,3.3048,3.3111,3.3087,3.311,3.3155,3.3184,3.3242,3.3177,3.3253,3.3256,3.3239,3.3356,3.3369,3.3462,3.3319,3.3321,3.3323,0,3.2662,3.2716,3.2834,3.2887,3.2914,3.2969,3.303,3.3083,3.3133,3.3147,3.3189,3.3193,3.3264,3.3224,3.3321,3.3276,3.3308,3.3327,3.3331,3.3338,3.3294,3.3366,3.3493,3.3506,3.3344,3.3343,3.3341,0,3.2733,3.2836,3.2919,3.2947,3.3012,3.305,3.3079,3.3127,3.3165,3.3218,3.3242,3.3303,3.3336,3.3381,3.3401,3.337,3.3496,3.3459,3.3508,3.3507,3.3535,3.3533,3.3668,3.3556,3.3556,3.3556,3.3555,0,3.2846,3.2918,3.2952,3.3003,3.3082,3.31,3.3177,3.3204,3.3246,3.3301,3.3302,3.3353,3.3376,3.343,3.3446,3.3522,3.3537,3.3549,3.3553,3.3549,3.3548,3.357,3.3564,3.3559,3.3559,3.3558,3.3557,0,3.294,3.2966,3.3056,3.3109,3.3124,3.318,3.3225,3.3273,3.3295,3.3365,3.3382,3.3416,3.348,3.3503,3.3581,3.3591,3.3679,3.3678,3.3663,3.3663,3.3711,3.3706,3.3865,3.3886,3.3761,3.3762,3.3763,0,3.301,3.3065,3.3124,3.3161,3.3191,3.325,3.3289,3.3308,3.3347,3.3407,3.3448,3.3511,3.3562,3.3663,3.3695,3.3753,3.3752,3.3804,3.3761,3.3755,3.3751,3.3748,3.3752,3.3812,3.3813,3.3814,3.3815,0,3.3132,3.3141,3.3197,3.3257,3.3303,3.3351,3.3397,3.3427,3.3453,3.3497,3.3562,3.3602,3.368,3.3742,3.3801,3.3829,3.3826,3.3828,3.3842,3.3839,3.3828,3.3833,3.3684,3.3824,3.3823,3.3823,3.3822,3.3822,3.3216,3.3263,3.3311,3.3373,3.3409,3.3452,3.35,3.3527,3.3582,3.3647,3.3654,3.3723,3.3769,3.3849,3.3879,3.3932,3.3918,3.3939,3.3944,3.3949,3.3952,3.3819,3.3943,3.3943,3.3942,3.3942,3.3942,0,3.3336,3.3367,3.3423,3.3487,3.3535,3.3528,3.3578,3.3618,3.3679,3.3722,3.3772,3.3845,3.3905,3.394,3.3999,3.4034,3.4034,3.4049,3.4046,3.4052,3.3962,3.3943,3.4048,3.4048,3.4048,3.4048,3.4048,3.4048,3.3405,3.3484,3.3499,3.3596,3.3625,3.3693,3.3722,3.3761,3.3795,3.3877,3.3926,3.3948,3.3988,3.4049,3.4102,3.4111,3.4132,3.4148,3.4155,3.407,3.4059,3.4049,3.4031,3.4153,3.4153,3.4241,3.4242,3.4243]}]]